Location: Newark
(49.4642°N, 2.1122°E)
Time: 15:42:29
(UTC+00:00)

AO-85 - Visible Passes

Search period start: 13 June 2021 00:00
Search period end: 23 June 2021 00:00
Orbit: 521 x 762 km, 64.8° (Epoch: 12 March)

Date Brightness Start Highest point End Pass type
(mag) Time Alt. Az. Time Alt. Az. Time Alt. Az.
13 Jun ? 00:13:43 10° NW 00:18:54 66° SW 00:21:52 26° SSE visible
13 Jun ? 01:56:30 10° W 01:58:25 12° WSW 01:59:24 11° WSW visible
13 Jun ? 21:17:37 10° NNW 21:21:17 19° NNE 21:25:03 10° ENE visible
13 Jun ? 22:57:43 10° NNW 23:02:49 53° NE 23:07:23 13° ESE visible
14 Jun ? 00:38:25 10° NW 00:43:07 34° WSW 00:44:56 27° SSW visible
14 Jun ? 21:41:55 10° NNW 21:46:17 27° NNE 21:50:44 10° E visible
14 Jun ? 23:22:05 10° NW 23:27:20 88° SW 23:30:33 25° SE visible
15 Jun ? 01:03:44 10° WNW 01:07:07 17° WSW 01:08:06 17° WSW visible
15 Jun ? 22:06:11 10° NNW 22:11:06 41° NE 22:16:06 10° ESE visible
15 Jun ? 23:46:38 10° NW 23:51:39 47° WSW 23:53:48 30° S visible
16 Jun ? 20:50:23 10° NNW 20:54:26 23° NNE 20:58:33 10° ENE visible
16 Jun ? 22:30:30 10° NW 22:35:43 70° NE 22:39:34 19° SE visible
17 Jun ? 00:11:35 10° WNW 00:15:45 24° WSW 00:17:07 22° SW visible
17 Jun ? 21:14:39 10° NNW 21:19:20 33° NE 21:24:06 10° E visible
17 Jun ? 22:54:57 10° NW 23:00:08 65° SW 23:02:58 27° SSE visible
18 Jun ? 00:37:48 10° W 00:39:38 12° WSW 00:40:31 11° WSW visible
18 Jun ? 21:38:56 10° NW 21:44:02 53° NE 21:48:50 12° ESE visible
18 Jun ? 23:19:39 10° NW 23:24:20 33° WSW 23:26:24 25° SSW visible
19 Jun ? 22:03:18 10° NW 22:08:34 87° SW 22:12:20 20° SE visible
19 Jun ? 23:45:00 10° WNW 23:48:19 17° WSW 23:49:54 15° SW visible
20 Jun ? 20:47:24 10° NNW 20:52:19 41° NE 20:57:20 10° ESE visible
20 Jun ? 22:27:51 10° NW 22:32:52 46° WSW 22:35:53 23° S visible
21 Jun ? 21:11:42 10° NW 21:16:56 71° NE 21:21:54 12° SE visible
21 Jun ? 22:52:48 10° WNW 22:56:58 24° WSW 22:59:29 17° SSW visible
22 Jun ? 21:36:09 10° NW 21:41:21 64° SW 21:45:33 16° SSE visible
22 Jun ? 23:19:06 10° W 23:20:50 12° WSW 23:22:35 10° SW visible
